Other Public Products
Issued by NWS Charleston, SC

Home | Current Version | Previous Version | Text Only | Print | Product List | Glossary On
Versions: 1 2 3 4 5 6 7 8 9 10 11 12 13 14 15 16 17 18 19 20 21 22 23 24 25 26 27 28 29 30 31 32 33 34 35 36 37 38 39 40 41 42 43 44 45 46 47 48 49 50
277
FPUS82 KCHS 222327
OPUCHS

TEST...KCHS/KSAV Gateway Observations...TEST
National Weather Service Charleston SC
600 PM EST MON JAN 22 2018

NOTE: "fair" indicates few or no clouds below 12,000 feet with no
significant weather and/or obstructions to visibility.

SCZ050-WAZ558-NCZ071-TXZ119-213-PAZ071-DCZ001-FLZ074-172-MI076-
NYZ176-178-MAZ016-IL014-TNZ027-NJZ106-GAZ044-MD014-230000-

...Gateway Observations for Charleston International...

CITY           SKY/WX    TMP DP  RH WIND       PRES   REMARKS
Chas Airport   MOCLDY    64  60  87 SE9       30.07S
Seattle        PTSUNNY   45  37  73 S12       30.28S
Charlotte      MOCLDY    59  45  59 S7        30.03F
Dallas DFW     CLEAR     60  20  21 W21G30    30.02R
Dallas Love    CLEAR     59  21  23 NW17G28   30.03R
Philladelphia  MOCLDY    53  40  61 E3        30.07S
Wash National  CLOUDY    57  42  57 S9        30.02S
Baltimore      MOCLDY    55  42  61 SE7       30.02S
Miami          MOCLDY    75  67  76 SE12      30.05R
Detroit        CLOUDY    50  46  86 S14       29.63F
Newark         CLOUDY    43  39  86 N9        30.14R
Laguardia      CLOUDY    39  35  86 NE16      30.15S WCI  30
J F K          CLOUDY    45  41  86 E12       30.15S
Boston Logan   CLOUDY    38  37  97 NE12      30.27S FOG     WCI  30
Ft. Lauderdale FAIR      74  67  78 E10       30.05R
Chicago O`Hare FAIR      50  45  83 S12       29.44R
Chicago Midway MOCLDY    53  47  79 S10G20    29.45S
Houston Bush   PTCLDY    63  25  23 NW14      30.04R
Houston Hobby  MOCLDY    64  26  23 NW16      30.03R
Nashville      FAIR      62  54  74 S21G33    29.68F
Atlanta        RAIN      61  60  97 SE8       29.94F FOG

$$

GAZ044-118-TXZ119-213-NCZ071-DCZ001-MDZ014-506-PAZ021-071-NJZ106-
NYZ176-178-MAZ106-OHZ011-021-055-MIZ076-KYZ091-ILZ014-INZ047-
MNZ060-ONZ431-230000-

...Gateway Observations for Savannah International...

CITY           SKY/WX    TMP DP  RH WIND       PRES   REMARKS
Savannah Arpt  MOCLDY    67  62  84 S13       30.05S
Atlanta        RAIN      61  60  97 SE8       29.94F FOG
Charlotte      MOCLDY    59  45  59 S7        30.03F
Dallas DFW     CLEAR     60  20  21 W21G30    30.02R
Houston Bush   PTCLDY    63  25  23 NW14      30.04R
Wash National  CLOUDY    57  42  57 S9        30.02S
Wash Dulles    MOCLDY    60  42  51 SE8       30.00F
Baltimore      MOCLDY    55  42  61 SE7       30.02S
Philadelphia   MOCLDY    53  40  61 E3        30.07S
Newark         CLOUDY    43  39  86 N9        30.14R
Laguardia      CLOUDY    39  35  86 NE16      30.15S WCI  30
J F K          CLOUDY    45  41  86 E12       30.15S
Boston         CLOUDY    38  37  97 NE12      30.27S FOG     WCI  30
Pittsburg      CLOUDY    60  44  55 S5        29.81F
Akron          LGT RAIN  56  44  64 S16       29.77F
Cleveland      CLOUDY    57  47  69 S14G26    29.73F
Cincinnati     CLOUDY    57  51  80 S17G32    29.64F
Columbus       CLOUDY    54  49  83 S15       29.70F
Detroit        CLOUDY    50  46  86 S14       29.63F
Chicago O`Hare FAIR      50  45  83 S12       29.44R
Minneapolis    SNOW      27  26  96 N20G30    29.70R VSB 1/2 WCI  13
Indianapolis   MOCLDY    53  48  83 S15G23    29.56F
Toronto Canada FOG       34  32  93 E12G17    29.82F VSB 1/2 WCI  25

$$




USA.gov is the U.S. government's official web portal to all federal, state and local government web resources and services.